Wind_Speed
56 56 56 57 58 58 58 58 59 58 56 56 56 56 55 55 54 53 53 52 51 50 50 49 48 48 46 45 45 45 45 45 46 46 45 45 45 45
55 55 56 57 58 58 59 59 60 60 58 56 56 56 55 56 55 54 53 53 52 51 51 50 49 49 48 47 46 46 46 46 45 46 46 45 46 45
55 56 56 56 57 58 58 59 59 60 59 57 56 56 55 54 55 55 54 53 51 51 51 51 50 50 49 48 47 47 47 46 46 46 46 46 45 43
55 56 56 57 57 57 58 58 59 59 58 57 55 55 55 54 54 53 53 53 52 51 51 51 51 51 49 49 48 48 48 47 47 46 45 45 44 43
55 56 56 56 56 56 57 58 58 58 58 57 55 54 54 53 53 53 53 52 52 51 50 50 50 49 49 49 47 47 48 47 47 46 45 44 43 42
55 55 55 55 54 55 55 56 56 57 57 56 55 53 51 51 51 50 50 51 50 49 50 49 50 49 48 47 47 46 46 46 46 46 45 44 42 41
52 53 53 53 53 53 53 53 54 54 54 54 52 49 48 49 49 48 48 49 50 49 48 48 48 48 47 46 45 44 44 44 44 44 43 42 41 40
50 51 51 51 51 51 51 51 50 50 49 50 49 46 46 47 47 46 46 47 47 47 47 46 47 46 45 44 44 44 44 42 42 43 42 40 40 40
48 48 48 48 48 48 48 48 47 46 47 47 45 44 45 45 45 44 44 45 44 44 45 44 44 44 43 43 42 42 42 42 42 41 40 39 39 40
46 46 45 45 44 44 45 45 45 43 44 44 43 43 43 42 42 42 42 43 43 42 43 42 42 42 42 41 40 40 40 40 39 38 38 38 39 39
42 42 42 41 40 41 42 42 41 40 41 41 42 42 41 41 41 40 40 41 41 40 41 41 40 40 39 38 38 38 39 38 37 37 37 38 38 38
39 39 39 38 38 39 39 39 38 38 38 40 41 41 40 40 39 38 39 40 40 39 40 41 39 39 38 37 36 36 37 37 37 37 37 37 37 36
34 35 35 35 34 35 36 36 36 37 37 37 38 39 39 40 38 38 38 38 39 38 39 40 39 37 37 35 34 35 35 35 36 36 35 35 34 33
32 33 34 34 34 34 34 35 37 36 35 35 36 38 38 38 37 37 37 37 36 36 37 38 37 36 34 34 33 33 33 34 34 33 32 32 31 30
31 32 33 33 33 33 33 33 34 35 34 34 35 36 37 37 36 35 35 35 35 35 36 36 35 34 33 33 32 32 32 32 31 30 29 29 29 28
31 30 31 32 32 32 32 32 33 33 33 33 33 35 36 36 35 35 34 34 34 33 33 33 32 32 31 31 30 30 29 29 28 28 28 27 27 27
30 30 30 30 30 30 30 30 31 31 31 31 31 32 34 34 34 34 33 33 31 30 30 31 31 30 29 28 27 26 26 26 26 26 26 26 25 25
28 28 28 28 28 28 28 29 30 30 30 30 31 31 31 31 32 33 32 30 29 28 28 28 28 27 27 26 25 24 24 24 24 23 24 24 23 22
27 27 27 27 27 27 27 27 28 28 28 28 29 29 30 30 30 30 29 28 26 26 26 26 26 25 24 22 21 22 22 22 22 22 22 22 20 20
25 25 26 27 27 26 26 27 27 27 27 28 28 28 28 28 28 27 26 25 25 25 24 24 24 23 21 20 20 20 21 21 21 21 21 20 19 19
24 25 26 26 26 26 26 26 27 26 26 26 26 26 26 26 26 25 25 24 23 23 23 22 22 21 20 20 20 19 20 20 19 19 19 18 18 18
24 25 25 26 26 25 25 25 25 25 24 24 24 24 25 25 24 24 23 23 22 22 21 21 21 21 20 20 19 19 19 19 19 18 16 16 16 15
23 24 25 25 25 24 24 24 23 22 22 23 23 23 23 23 23 23 22 22 21 21 21 21 20 19 19 19 19 19 19 18 17 16 15 15 14 13
Wind_Direction
263 263 263 262 262 263 263 263 262 262 261 260 260 260 261 262 263 264 264 265 266 267 266 268 269 270 272 273 275 277 278 279 280 281 282 284 285 286
263 264 264 263 263 263 263 263 262 262 261 260 260 260 260 261 261 263 264 264 264 265 266 268 269 269 270 272 274 276 277 279 280 280 281 283 284 285
263 264 264 264 263 263 263 262 262 261 262 261 260 259 260 261 261 261 262 262 263 264 265 267 268 269 270 271 273 274 276 278 279 281 282 282 283 284
263 264 264 263 263 263 263 263 262 261 262 261 260 260 260 261 261 261 262 261 262 263 265 266 267 268 269 271 271 273 275 277 279 281 282 283 283 283
263 264 264 264 264 264 264 263 262 261 261 261 260 260 259 259 260 261 261 261 261 263 264 265 266 267 269 270 271 272 273 275 276 278 280 282 283 283
263 263 264 264 265 264 264 263 261 260 260 260 260 259 258 258 259 260 260 261 262 264 264 265 266 267 269 269 270 271 273 274 275 276 278 280 281 281
262 262 263 264 263 264 263 261 261 260 259 259 259 258 257 257 257 259 259 260 260 262 264 266 267 267 268 269 270 270 272 273 273 274 276 277 279 280
262 261 262 262 263 263 262 261 260 259 258 258 258 258 256 256 255 258 259 259 260 261 263 266 267 266 267 269 270 270 271 271 272 273 274 276 278 280
262 261 261 262 261 260 260 259 259 258 258 257 256 257 256 256 255 257 258 258 261 262 262 264 265 265 267 269 269 270 270 271 272 274 275 276 278 279
261 261 261 260 259 259 259 258 257 257 257 256 255 256 256 255 255 257 257 258 260 261 261 262 264 266 268 268 268 268 269 270 271 274 275 277 279 279
260 261 261 259 258 258 257 257 255 254 254 255 254 254 254 254 254 256 257 258 259 260 261 263 265 266 267 268 267 267 267 269 271 274 276 278 279 280
260 259 258 257 257 259 259 256 253 252 253 253 252 251 253 253 254 257 259 259 260 259 260 263 265 265 265 267 266 265 267 269 272 273 275 277 279 280
260 257 255 255 256 258 258 256 254 254 254 253 252 250 251 252 254 257 260 260 260 260 261 262 263 264 266 265 264 265 267 269 271 272 274 277 279 280
260 256 254 255 257 257 257 256 254 253 252 252 251 249 249 251 253 257 258 258 260 259 259 261 261 262 263 264 265 266 267 269 271 271 272 276 278 278
259 256 254 255 257 257 257 256 252 250 251 251 250 249 249 251 254 256 256 257 258 257 258 260 260 260 262 264 265 266 268 269 270 270 273 276 276 275
258 255 254 254 255 256 255 253 250 250 251 251 250 250 250 251 254 255 255 257 257 256 257 258 259 260 262 264 265 267 267 268 268 268 270 273 274 274
257 256 257 258 257 256 252 250 250 249 251 250 250 250 250 250 252 253 256 257 254 253 253 255 257 260 262 262 264 266 266 267 268 269 271 274 274 275
259 258 257 257 258 254 250 250 249 249 250 250 250 249 249 249 249 252 255 253 250 250 251 253 256 257 259 261 262 263 265 268 269 270 273 274 274 275
259 257 256 255 255 251 250 250 249 250 250 250 250 249 249 249 249 250 249 248 249 250 251 252 254 255 256 257 257 261 264 265 267 270 272 272 273 274
260 259 256 253 251 250 249 249 247 249 250 249 249 247 247 248 247 244 244 246 248 249 249 250 252 252 252 253 254 257 262 266 267 270 272 270 269 272
260 259 255 252 250 247 247 247 247 248 247 247 246 244 244 244 242 241 243 244 245 246 246 246 246 246 248 250 254 257 260 265 269 272 272 268 267 268
257 256 254 251 248 246 246 246 246 245 244 243 242 241 240 238 236 238 240 241 243 243 244 244 244 245 247 250 256 258 259 263 266 268 268 268 266 264
254 254 252 249 246 246 245 243 242 240 240 240 241 240 236 235 235 237 239 240 241 241 244 244 243 243 244 248 252 253 257 260 261 262 261 263 263 263
Height
5625 5626 5628 5629 5631 5632 5633 5635 5637 5639 5644 5648 5649 5651 5652 5654 5656 5656 5657 5659 5660 5661 5661 5662 5662 5662 5662 5661 5661 5660 5659 5658 5656 5654 5652 5650 5648 5645
5609 5610 5612 5613 5615 5616 5617 5618 5620 5622 5626 5632 5633 5636 5637 5638 5640 5641 5642 5644 5646 5647 5647 5648 5649 5649 5649 5649 5648 5648 5647 5645 5644 5642 5640 5638 5636 5633
5593 5595 5596 5597 5598 5600 5601 5602 5604 5605 5608 5614 5617 5619 5620 5622 5624 5626 5627 5629 5631 5632 5633 5634 5635 5635 5636 5636 5635 5635 5634 5633 5631 5630 5628 5626 5624 5622
5578 5579 5581 5581 5582 5584 5585 5586 5588 5589 5591 5596 5600 5602 5605 5607 5609 5610 5612 5614 5616 5618 5618 5619 5620 5621 5621 5622 5622 5622 5621 5620 5619 5617 5616 5614 5612 5609
5562 5563 5564 5565 5567 5568 5568 5570 5571 5573 5575 5578 5583 5587 5589 5591 5593 5595 5597 5599 5601 5603 5604 5605 5606 5607 5608 5608 5608 5608 5608 5608 5607 5605 5603 5602 5600 5598
5546 5547 5549 5550 5551 5552 5553 5554 5556 5558 5560 5563 5567 5571 5574 5576 5578 5581 5583 5585 5588 5589 5590 5592 5593 5593 5594 5594 5594 5595 5595 5594 5593 5593 5591 5590 5588 5586
5531 5532 5533 5534 5536 5537 5538 5540 5541 5543 5546 5548 5552 5556 5559 5562 5565 5567 5569 5572 5575 5576 5577 5579 5579 5580 5580 5580 5581 5581 5581 5581 5580 5580 5579 5578 5576 5575
5516 5518 5519 5520 5521 5522 5524 5525 5527 5529 5532 5535 5538 5542 5546 5549 5551 5553 5556 5558 5562 5565 5564 5566 5566 5567 5568 5568 5567 5567 5568 5568 5568 5567 5567 5566 5565 5563
5502 5503 5505 5506 5507 5509 5510 5512 5514 5516 5519 5522 5525 5529 5532 5536 5539 5541 5543 5545 5549 5551 5551 5553 5554 5555 5555 5555 5555 5555 5555 5555 5555 5555 5554 5554 5553 5552
5488 5490 5491 5493 5494 5496 5497 5499 5502 5504 5507 5510 5513 5517 5520 5523 5525 5528 5530 5533 5535 5537 5538 5540 5542 5543 5543 5543 5543 5543 5544 5544 5544 5543 5543 5543 5542 5541
5476 5477 5478 5480 5482 5484 5485 5487 5491 5493 5495 5498 5501 5504 5507 5510 5513 5515 5518 5519 5523 5526 5527 5528 5530 5530 5531 5532 5532 5532 5533 5533 5533 5533 5532 5532 5531 5530
5465 5466 5467 5469 5471 5472 5474 5476 5480 5483 5485 5487 5490 5493 5496 5499 5501 5503 5506 5508 5511 5514 5516 5517 5518 5518 5521 5523 5522 5522 5522 5522 5522 5522 5522 5521 5520 5519
5454 5456 5457 5459 5460 5462 5463 5466 5469 5471 5474 5477 5479 5482 5485 5488 5490 5493 5495 5497 5500 5503 5505 5506 5507 5508 5509 5512 5513 5512 5512 5512 5512 5512 5512 5511 5510 5509
5444 5446 5448 5450 5451 5452 5454 5456 5458 5460 5463 5466 5469 5472 5475 5478 5481 5483 5485 5487 5489 5492 5494 5495 5497 5498 5499 5500 5502 5503 5503 5502 5502 5502 5502 5502 5501 5500
5436 5437 5439 5440 5442 5443 5445 5446 5448 5451 5453 5456 5460 5463 5466 5468 5471 5473 5474 5477 5479 5481 5483 5484 5486 5487 5489 5490 5492 5493 5493 5493 5493 5493 5493 5493 5492 5492
5427 5428 5430 5431 5432 5434 5435 5437 5439 5442 5444 5447 5450 5453 5455 5458 5460 5463 5465 5467 5470 5472 5473 5475 5477 5478 5480 5481 5482 5483 5483 5484 5485 5484 5484 5485 5485 5484
5418 5420 5421 5422 5423 5425 5427 5428 5431 5433 5435 5438 5440 5443 5446 5448 5451 5453 5455 5457 5460 5463 5465 5466 5467 5469 5470 5472 5473 5474 5475 5475 5476 5476 5477 5477 5477 5476
5410 5411 5413 5414 5415 5416 5418 5420 5422 5424 5427 5429 5432 5434 5437 5439 5442 5444 5446 5449 5451 5454 5456 5458 5459 5461 5463 5464 5465 5466 5467 5468 5468 5469 5469 5470 5470 5469
5402 5403 5404 5406 5407 5409 5411 5413 5415 5417 5418 5421 5423 5426 5428 5431 5433 5436 5438 5441 5444 5446 5449 5450 5452 5454 5456 5458 5459 5459 5460 5461 5462 5462 5463 5463 5463 5463
5394 5395 5396 5398 5399 5401 5403 5405 5407 5409 5411 5413 5415 5418 5420 5423 5426 5428 5431 5434 5437 5439 5441 5443 5445 5447 5450 5452 5453 5454 5454 5455 5456 5456 5456 5456 5456 5456
5386 5387 5388 5390 5391 5393 5395 5397 5399 5401 5403 5405 5408 5410 5413 5416 5419 5422 5425 5427 5430 5432 5435 5437 5439 5441 5443 5445 5447 5448 5449 5449 5450 5450 5450 5450 5450 5450
5379 5380 5381 5382 5384 5386 5388 5390 5392 5395 5397 5399 5402 5404 5407 5410 5413 5416 5419 5421 5424 5427 5429 5431 5433 5435 5437 5439 5441 5442 5443 5444 5444 5444 5444 5446 5446 5446
5371 5372 5374 5375 5377 5379 5381 5383 5386 5388 5391 5393 5396 5398 5401 5404 5407 5410 5413 5415 5418 5421 5423 5425 5427 5429 5432 5433 5435 5436 5437 5438 5439 5439 5440 5440 5441 5442